Regional Weather Roundup
Issued by NWS

Home | Current Version | Previous Version | Graphics & Text | Print | Product List | Glossary On
Versions: 1 2 3 4 5 6 7 8 9 10 11 12 13 14 15 16 17 18 19 20 21 22 23 24 25 26 27 28 29 30 31 32 33 34 35 36 37 38 39 40 41 42 43 44 45 46 47 48 49 50
000
ASUS44 KMEG 240200
RWRTN
TENNESSEE HOURLY STATE WEATHER ROUNDUP
NATIONAL WEATHER SERVICE MEMPHIS TN
900 PM CDT TUE SEP 23 2014

TNZ002-004-019-021-049-052-054-088>092-240300-
WEST TENNESSEE

CITY           SKY/WX    TMP DP  RH WIND       PRES   REMARKS
MEMPHIS INTL   PTCLDY    69  49  48 E7        30.16S
NWS MEMPHIS      N/A     65 N/A N/A MISG        N/A
JACKSON        CLEAR     58  53  84 CALM      30.19R
DYERSBURG      CLEAR     63  45  51 CALM      30.20R
UNION CITY     CLEAR     59  48  67 NE5       30.19S
PARIS          CLEAR     55  46  71 NE5       30.22R
LEXINGTON      CLEAR     57  52  82 CALM      30.19R
SAVANNAH       CLEAR     59  50  72 CALM      30.19R
$$

TNZ008-025-027-028-033-062-065-066-240300-
NORTH MIDDLE TENNESSEE

CITY           SKY/WX    TMP DP  RH WIND       PRES   REMARKS
NASHVILLE      CLEAR     64  50  60 NE5       30.22R
CLARKSVILLE    CLEAR     63  46  54 NE6       30.22S
COOKEVILLE     CLEAR     48  48 100 CALM      30.23S
CROSSVILLE     CLEAR     61  49  64 NE5       30.26S
$$

TNZ061-075-076-078-094-096-097-240300-
SOUTH MIDDLE TENNESSEE

CITY           SKY/WX    TMP DP  RH WIND       PRES   REMARKS
TULLAHOMA      CLEAR     64  52  63 NE5       30.23R
WINCHESTER     CLEAR     61  55  82 CALM      30.22R
SHELBYVILLE    CLEAR     59  54  82 CALM      30.22S
$$

TNZ017-018-042-046-047-240300-
NORTHEAST TENNESSEE

CITY           SKY/WX    TMP DP  RH WIND       PRES   REMARKS
TRI CITIES     PTCLDY    61  52  72 CALM      30.28R
ELIZABETHTON   CLEAR     55  52  88 NE3       30.29S
$$

TNZ012-013-036-069-073-074-240300-
CENTRAL EAST TENNESSEE

CITY           SKY/WX    TMP DP  RH WIND       PRES   REMARKS
KNOXVILLE      CLEAR     63  55  75 CALM      30.22R
OAK RIDGE      CLEAR     61  54  77 CALM      30.25R
GATLINBURG     CLEAR     59  54  82 CALM      30.23S
$$

TNZ083-085-099-240300-
SOUTHEAST TENNESSEE

CITY           SKY/WX    TMP DP  RH WIND       PRES   REMARKS
CHATTANOOGA    CLEAR     67  55  65 CALM      30.21R
$$

SKY/WX REPORTED AS FAIR MEANS FEW OR NO CLOUDS BELOW
12 THOUSAND FEET.




USA.gov is the U.S. government's official web portal to all federal, state and local government web resources and services.